Location: Bletchingley
(51.2333°N, 0.1000°W)
Time: 04:41:44
(UTC+00:00)

Cosmos 1844 Rocket - Pass Details

Date: 18 September 2020
Orbit: 823 x 846 km, 71.0° (Epoch: 20 October)

Event Time Altitude Azimuth Distance (km) Brightness Sun altitude
Rises 21:23:02 0° 230° (SW) 3,353 5.9 -28.4°
Reaches altitude 10° 21:25:34 10° 237° (WSW) 2,425 5.2 -28.6°
Maximum altitude 21:30:53 45° 309° (NW) 1,122 3.7 -29.2°
Drops below altitude 10° 21:36:15 10° 22° (NNE) 2,449 5.4 -29.8°
Sets 21:38:50 0° 29° (NNE) 3,390 6.1 -30.0°
